Regional Weather Roundup
Issued by NWS Albany, NY

Home | Current Version | Previous Version | Text Only | Print | Product List | Glossary On
Versions: 1 2 3 4 5 6 7 8 9 10 11 12 13 14 15 16 17 18 19 20 21 22 23 24 25 26 27 28 29 30 31 32 33 34 35 36 37 38 39 40 41 42 43 44 45 46 47 48 49 50
878
ASUS41 KALY 110310
RWRALY

NEW YORK STATE HOURLY WEATHER ROUNDUP
NATIONAL WEATHER SERVICE ALBANY NY
1000 PM EST SUN DEC 10 2017

NOTE: "FAIR" INDICATES FEW OR NO CLOUDS BELOW 12,000 FEET WITH NO
SIGNIFICANT WEATHER AND/OR NO OBSTRUCTIONS TO VISIBILITY.

NYZ032-033-038>043-046>054-057>066-NYZ062>081-082-084-110400-
EAST


CITY           SKY/WX    TMP DP  RH WIND       PRES   REMARKS
ALBANY         CLOUDY    31  21  66 S7        29.90S WCI  24
GLENS FALLS    CLOUDY    30  22  72 S6        29.88S WCI  24
POUGHKEEPSIE   CLOUDY    33  20  58 SW6       29.96S WCI  28
NEWBURGH       CLOUDY    32  23  69 W12       29.96S WCI  23
MONTGOMERY     CLOUDY    32  21  64 SW10      29.95S WCI  24
WHITE PLAINS   PTCLDY    33  21  61 SW7       29.98R WCI  27
ISLIP          CLOUDY    35  24  64 W9        30.01R WCI  28
NEW YORK CITY  CLOUDY    37  20  50 SW14      30.01S WCI  28
CENTRAL PARK   CLOUDY    36  21  54 SW10G16   30.03R WCI  28
$$

NYZ005>009-017-018-044>046-055-056-110400-
CENTRAL


CITY           SKY/WX    TMP DP  RH WIND       PRES   REMARKS
FULTON         FLURRIES  29  25  85 SW12      29.86F WCI  19
SYRACUSE       FLURRIES  28  27  96 W8        29.88S WCI  20
ROME           LGT SNOW  27  26  96 CALM      29.89S FOG
ELMIRA         CLOUDY    32  18  56 SW10      29.90S WCI  24
BINGHAMTON     CLOUDY    26  16  65 W13G21    29.85S WCI  15
MONTICELLO     PTCLDY    25  18  74 SW6       29.91  WCI  18
$$

NYZ026>034-041>043-087-110400-
NORTH


CITY           SKY/WX    TMP DP  RH WIND       PRES   REMARKS
WATERTOWN      CLOUDY    33  24  69 W17       29.81S WCI  22
FORT DRUM      NOT AVBL
OGDENSBURG     FAIR      30  21  69 W8        29.80R WCI  22
MASSENA        CLOUDY    29  23  78 SW9       29.80S WCI  20
SARANAC LAKE   LGT SNOW  22  21  96 SW8       29.72S FOG     WCI  12
PLATTSBURGH    CLOUDY    29  20  69 S3        29.82R
$$

NYZ001>004-010>016-019>021-085-110400-
WEST


CITY           SKY/WX    TMP DP  RH WIND       PRES   REMARKS
NIAGARA FALLS  FLURRIES  30  19  63 W15       29.87S WCI  19
BUFFALO        FLURRIES  28  21  75 W9        29.88R WCI  19
DUNKIRK        FLURRIES  28  20  71 SW17G23   29.90S WCI  16
JAMESTOWN      FLURRIES  24  18  77 SW14G25   29.87S WCI  12
WELLSVILLE     FLURRIES  26  15  63 SW14G22   29.84F WCI  14
ROCHESTER      LGT SNOW  28  26  92 SW12      29.88S FOG     WCI  18
PENN YAN       CLOUDY    30  18  60 SW15G21   29.87S WCI  19
$$

             KEY
       WCI = WIND CHILL INDEX
       VSB = VISIBILITY
       HX  = HEAT INDEX
$$




USA.gov is the U.S. government's official web portal to all federal, state and local government web resources and services.